KQA651 HKKI-HKJK

Flight info

Callsign KQA651
Flight time 0h 34m
Altitude 21000
Route IBSUL1B IBSUL DCT NAKAT NAKAT4A
Aircraft E190/M-SDE1E2E3FGHIJ2J3J4J5M1RWXYZ/LB1D1

Departure

Time 2026-05-04 12:53
Airport Kisumu International Airport (HKKI)

Arrival

Time 2026-05-04 13:27
Airport Jomo Kenyatta International Airport (HKJK)
Time Latitude Longitude Altitude Speed Heading
2026-05-04 12:48 -0.08400 34.73038 3778 ft 10 kts 151°
2026-05-04 12:48 -0.08463 34.73073 3782 ft 10 kts 143°
2026-05-04 12:48 -0.08457 34.73142 3778 ft 13 kts 59°
2026-05-04 12:48 -0.08407 34.73234 3785 ft 17 kts 62°
2026-05-04 12:49 -0.08349 34.73341 3779 ft 18 kts 62°
2026-05-04 12:49 -0.08289 34.73454 3782 ft 19 kts 61°
2026-05-04 12:49 -0.08232 34.73557 3785 ft 15 kts 60°
2026-05-04 12:49 -0.08153 34.73613 3783 ft 12 kts 29°
2026-05-04 12:50 -0.08125 34.73649 3776 ft 3 kts 104°
2026-05-04 12:50 -0.08138 34.73660 3779 ft 2 kts 151°
2026-05-04 12:50 -0.08154 34.73664 3775 ft 3 kts 173°
2026-05-04 12:50 -0.08174 34.73656 3783 ft 3 kts 211°
2026-05-04 12:51 -0.08190 34.73636 3775 ft 4 kts 240°
2026-05-04 12:51 -0.08193 34.73630 3780 ft 0 kts 242°
2026-05-04 12:52 -0.08199 34.73619 3778 ft 11 kts 242°
2026-05-04 12:52 -0.08342 34.73351 3779 ft 76 kts 242°
2026-05-04 12:53 -0.08690 34.72711 3782 ft 133 kts 242°
2026-05-04 12:53 -0.09201 34.71762 3880 ft 170 kts 240°
2026-05-04 12:53 -0.09788 34.70715 4698 ft 178 kts 238°
2026-05-04 12:53 -0.10481 34.69555 5082 ft 216 kts 239°
2026-05-04 12:54 -0.11452 34.68247 5492 ft 245 kts 219°
2026-05-04 12:54 -0.13013 34.67709 6668 ft 243 kts 180°
2026-05-04 12:54 -0.14597 34.68246 7631 ft 246 kts 141°
2026-05-04 12:54 -0.15660 34.69581 8629 ft 247 kts 123°
2026-05-04 12:55 -0.16797 34.70877 9535 ft 254 kts 138°
2026-05-04 12:55 -0.18278 34.71916 10306 ft 271 kts 147°
2026-05-04 12:55 -0.19991 34.72948 10697 ft 301 kts 147°
2026-05-04 12:55 -0.21849 34.74101 11214 ft 327 kts 146°
2026-05-04 12:56 -0.23827 34.75382 11798 ft 349 kts 145°
2026-05-04 12:56 -0.25874 34.76742 12764 ft 356 kts 145°
2026-05-04 12:56 -0.27940 34.78122 13874 ft 359 kts 145°
2026-05-04 12:56 -0.30032 34.79512 14833 ft 362 kts 145°
2026-05-04 12:57 -0.32135 34.80924 15751 ft 367 kts 145°
2026-05-04 12:57 -0.34251 34.82377 16598 ft 372 kts 144°
2026-05-04 12:57 -0.36370 34.83887 17421 ft 377 kts 144°
2026-05-04 12:57 -0.38501 34.85453 18210 ft 383 kts 143°
2026-05-04 12:58 -0.40643 34.87063 18903 ft 387 kts 142°
2026-05-04 12:58 -0.42786 34.88705 19635 ft 389 kts 141°
2026-05-04 12:58 -0.44723 34.90611 20286 ft 393 kts 131°
2026-05-04 12:58 -0.46509 34.92700 20887 ft 399 kts 129°
2026-05-04 12:59 -0.48316 34.94874 21121 ft 417 kts 129°
2026-05-04 12:59 -0.50154 34.97083 21231 ft 404 kts 129°
2026-05-04 12:59 -0.51938 34.99217 20733 ft 396 kts 129°
2026-05-04 12:59 -0.53683 35.01292 21013 ft 388 kts 130°
2026-05-04 13:00 -0.55456 35.03392 21046 ft 400 kts 130°
2026-05-04 13:00 -0.57248 35.05519 21012 ft 402 kts 130°
2026-05-04 13:00 -0.59053 35.07657 21016 ft 403 kts 130°
2026-05-04 13:00 -0.60864 35.09802 21016 ft 404 kts 130°
2026-05-04 13:01 -0.62677 35.11947 21012 ft 404 kts 130°
2026-05-04 13:01 -0.64485 35.14091 21013 ft 404 kts 130°
2026-05-04 13:01 -0.66297 35.16242 21006 ft 404 kts 129°
2026-05-04 13:01 -0.68079 35.18353 21022 ft 403 kts 129°
2026-05-04 13:02 -0.69885 35.20494 21035 ft 403 kts 129°
2026-05-04 13:02 -0.71691 35.22635 21035 ft 403 kts 129°
2026-05-04 13:02 -0.73497 35.24777 21041 ft 403 kts 129°
2026-05-04 13:02 -0.75305 35.26919 21044 ft 402 kts 129°
2026-05-04 13:03 -0.77106 35.29053 21047 ft 402 kts 129°
2026-05-04 13:03 -0.78911 35.31193 21052 ft 402 kts 129°
2026-05-04 13:03 -0.80707 35.33325 21052 ft 401 kts 129°
2026-05-04 13:03 -0.82441 35.35504 21067 ft 400 kts 122°
2026-05-04 13:04 -0.83586 35.38024 21063 ft 401 kts 104°
2026-05-04 13:04 -0.84012 35.40778 21084 ft 401 kts 96°
2026-05-04 13:04 -0.84288 35.43554 21068 ft 402 kts 96°
2026-05-04 13:04 -0.84550 35.46325 21072 ft 401 kts 96°
2026-05-04 13:05 -0.84816 35.49099 21072 ft 401 kts 96°
2026-05-04 13:05 -0.85087 35.51867 21078 ft 401 kts 96°
2026-05-04 13:05 -0.85359 35.54637 21083 ft 401 kts 96°
2026-05-04 13:05 -0.85633 35.57417 21090 ft 401 kts 96°
2026-05-04 13:06 -0.85907 35.60193 21100 ft 401 kts 96°
2026-05-04 13:06 -0.86179 35.62967 21106 ft 401 kts 96°
2026-05-04 13:06 -0.86453 35.65743 21107 ft 401 kts 96°
2026-05-04 13:06 -0.86727 35.68518 21120 ft 401 kts 96°
2026-05-04 13:07 -0.87000 35.71294 21122 ft 401 kts 96°
2026-05-04 13:07 -0.87274 35.74066 21126 ft 401 kts 96°
2026-05-04 13:07 -0.87548 35.76838 21128 ft 401 kts 96°
2026-05-04 13:07 -0.87822 35.79610 21134 ft 401 kts 96°
2026-05-04 13:08 -0.88094 35.82381 21139 ft 401 kts 96°
2026-05-04 13:08 -0.88368 35.85153 21142 ft 401 kts 96°
2026-05-04 13:08 -0.88642 35.87926 21145 ft 401 kts 96°
2026-05-04 13:08 -0.88916 35.90700 21152 ft 400 kts 96°
2026-05-04 13:09 -0.89188 35.93469 21155 ft 401 kts 96°
2026-05-04 13:09 -0.89461 35.96245 21154 ft 401 kts 96°
2026-05-04 13:09 -0.89735 35.99010 21146 ft 400 kts 96°
2026-05-04 13:09 -0.90008 36.01781 21143 ft 401 kts 96°
2026-05-04 13:10 -0.90274 36.04511 21155 ft 401 kts 96°
2026-05-04 13:10 -0.90551 36.07323 21158 ft 401 kts 96°
2026-05-04 13:10 -0.90823 36.10060 21159 ft 401 kts 96°
2026-05-04 13:10 -0.91096 36.12832 21152 ft 401 kts 96°
2026-05-04 13:11 -0.91368 36.15606 21151 ft 401 kts 96°
2026-05-04 13:11 -0.91639 36.18376 21148 ft 401 kts 96°
2026-05-04 13:11 -0.91912 36.21148 21153 ft 401 kts 96°
2026-05-04 13:11 -0.92180 36.23924 21158 ft 401 kts 96°
2026-05-04 13:12 -0.92452 36.26692 21156 ft 400 kts 96°
2026-05-04 13:12 -0.92727 36.29470 21163 ft 401 kts 96°
2026-05-04 13:12 -0.93003 36.32243 21158 ft 401 kts 96°
2026-05-04 13:12 -0.93277 36.35017 21155 ft 402 kts 96°
2026-05-04 13:13 -0.93550 36.37793 21160 ft 402 kts 96°
2026-05-04 13:13 -0.93822 36.40570 21165 ft 401 kts 96°
2026-05-04 13:13 -0.94094 36.43341 21166 ft 401 kts 96°
2026-05-04 13:13 -0.94275 36.45180 21169 ft 402 kts 96°
2026-05-04 13:14 -0.94641 36.48896 21174 ft 402 kts 96°
2026-05-04 13:14 -0.94822 36.50733 21174 ft 401 kts 96°
2026-05-04 13:14 -0.95095 36.53509 21177 ft 401 kts 96°
2026-05-04 13:14 -0.95367 36.56282 21178 ft 402 kts 96°
2026-05-04 13:15 -0.95641 36.59060 21174 ft 401 kts 96°
2026-05-04 13:15 -0.95914 36.61826 21014 ft 401 kts 96°
2026-05-04 13:15 -0.96186 36.64589 20725 ft 396 kts 96°
2026-05-04 13:15 -0.96454 36.67323 20308 ft 396 kts 96°
2026-05-04 13:16 -0.96723 36.70060 19736 ft 394 kts 96°
2026-05-04 13:16 -0.96989 36.72769 19174 ft 389 kts 96°
2026-05-04 13:16 -0.97163 36.74542 18856 ft 385 kts 96°
2026-05-04 13:16 -0.97381 36.76757 18405 ft 382 kts 95°
2026-05-04 13:17 -0.97639 36.79382 17920 ft 377 kts 95°
2026-05-04 13:17 -0.97895 36.81984 17413 ft 375 kts 95°
2026-05-04 13:17 -0.98148 36.84571 16920 ft 374 kts 95°
2026-05-04 13:17 -0.98399 36.87148 16428 ft 372 kts 95°
2026-05-04 13:18 -0.98653 36.89712 15929 ft 370 kts 95°
2026-05-04 13:18 -0.98908 36.92294 15427 ft 367 kts 95°
2026-05-04 13:18 -0.99154 36.94787 14946 ft 363 kts 94°
2026-05-04 13:18 -0.99401 36.97302 14469 ft 355 kts 94°
2026-05-04 13:19 -0.99640 36.99737 13912 ft 351 kts 94°
2026-05-04 13:19 -0.99872 37.02129 13520 ft 341 kts 94°
2026-05-04 13:19 -1.00100 37.04461 13066 ft 334 kts 95°
2026-05-04 13:19 -1.00367 37.06748 12630 ft 328 kts 97°
2026-05-04 13:20 -1.00992 37.08924 12120 ft 327 kts 117°
2026-05-04 13:20 -1.02373 37.10643 11807 ft 320 kts 137°
2026-05-04 13:20 -1.04192 37.11943 11342 ft 318 kts 148°
2026-05-04 13:20 -1.06077 37.12960 10890 ft 305 kts 153°
2026-05-04 13:21 -1.07969 37.13809 10494 ft 295 kts 163°
2026-05-04 13:21 -1.09973 37.13897 10123 ft 287 kts 193°
2026-05-04 13:21 -1.11815 37.13223 9762 ft 278 kts 204°
2026-05-04 13:21 -1.13541 37.12370 9375 ft 267 kts 206°
2026-05-04 13:22 -1.15136 37.11565 9050 ft 255 kts 205°
2026-05-04 13:22 -1.16737 37.10788 8729 ft 252 kts 203°
2026-05-04 13:22 -1.18289 37.10068 8440 ft 238 kts 202°
2026-05-04 13:22 -1.19672 37.09297 8192 ft 222 kts 218°
2026-05-04 13:23 -1.20666 37.08193 8148 ft 206 kts 230°
2026-05-04 13:23 -1.21511 37.07061 7854 ft 218 kts 231°
2026-05-04 13:23 -1.22377 37.05842 7664 ft 209 kts 231°
2026-05-04 13:23 -1.23190 37.04694 7532 ft 196 kts 230°
2026-05-04 13:24 -1.23969 37.03628 7403 ft 188 kts 230°
2026-05-04 13:24 -1.24760 37.02564 7327 ft 192 kts 230°
2026-05-04 13:24 -1.25566 37.01472 7172 ft 189 kts 230°
2026-05-04 13:25 -1.27054 36.99424 6623 ft 178 kts 230°
2026-05-04 13:25 -1.27770 36.98445 6337 ft 169 kts 231°
2026-05-04 13:25 -1.28443 36.97520 6020 ft 164 kts 231°
2026-05-04 13:25 -1.28605 36.97297 5916 ft 163 kts 231°
2026-05-04 13:26 -1.29143 36.96573 5637 ft 156 kts 231°
2026-05-04 13:26 -1.29799 36.95680 5545 ft 163 kts 230°
2026-05-04 13:26 -1.30452 36.94790 5354 ft 153 kts 232°
2026-05-04 13:26 -1.30871 36.94227 5293 ft 138 kts 234°
2026-05-04 13:27 -1.31346 36.93568 5305 ft 98 kts 233°
2026-05-04 13:27 -1.31777 36.92979 5311 ft 87 kts 233°
2026-05-04 13:27 -1.32024 36.92645 5318 ft 46 kts 234°
2026-05-04 13:27 -1.32204 36.92400 5312 ft 42 kts 233°
2026-05-04 13:28 -1.32367 36.92173 5322 ft 40 kts 232°
2026-05-04 13:28 -1.32529 36.91947 5322 ft 40 kts 234°
2026-05-04 13:28 -1.32685 36.91736 5336 ft 36 kts 233°
2026-05-04 13:28 -1.32767 36.91652 5336 ft 5 kts 153°
2026-05-04 13:29 -1.32802 36.91678 5338 ft 8 kts 141°
2026-05-04 13:29 -1.32851 36.91715 5337 ft 10 kts 146°
2026-05-04 13:29 -1.32912 36.91759 5337 ft 12 kts 144°
2026-05-04 13:29 -1.32982 36.91808 5336 ft 13 kts 144°
2026-05-04 13:30 -1.32990 36.91881 5331 ft 14 kts 55°
2026-05-04 13:30 -1.32928 36.91963 5322 ft 16 kts 54°
2026-05-04 13:30 -1.32856 36.92062 5321 ft 19 kts 54°
2026-05-04 13:30 -1.32777 36.92169 5321 ft 19 kts 57°
2026-05-04 13:31 -1.32695 36.92282 5320 ft 20 kts 53°
2026-05-04 13:31 -1.32711 36.92368 5319 ft 13 kts 143°
2026-05-04 13:31 -1.32772 36.92429 5319 ft 12 kts 96°
2026-05-04 13:31 -1.32764 36.92515 5318 ft 13 kts 91°
2026-05-04 13:32 -1.32782 36.92601 5320 ft 13 kts 109°
2026-05-04 13:32 -1.32824 36.92680 5322 ft 12 kts 127°
2026-05-04 13:32 -1.32859 36.92714 5320 ft 4 kts 141°
2026-05-04 13:32 -1.32871 36.92709 5319 ft 2 kts 206°
2026-05-04 13:33 -1.32885 36.92698 5319 ft 3 kts 223°
2026-05-04 13:33 -1.32900 36.92680 5319 ft 4 kts 231°
2026-05-04 13:33 -1.32917 36.92658 5323 ft 4 kts 229°
2026-05-04 13:33 -1.32920 36.92654 5323 ft 1 kts 229°
2026-05-04 13:34 -1.32923 36.92651 5323 ft 0 kts 229°